RH
73 74 92 97 89 94 93 93 94 74 82 79 76 80 86 90 98 99 100 100 99 97 99 98 97 98 95 96 95 98 98 98 98 100 100 99 99 92 78 71 69 64 60 76
96 72 99 98 77 85 90 95 87 86 89 87 98 98 95 100 98 100 100 100 100 99 98 99 98 97 97 96 96 97 97 98 98 99 100 98 86 99 100 99 84 72 69 86
96 69 78 100 100 97 90 84 88 88 82 81 89 94 96 98 100 100 100 100 100 100 98 98 97 97 97 96 96 96 97 97 98 99 96 99 98 95 91 99 85 66 79 80
97 80 95 90 83 90 86 82 89 87 88 90 93 93 94 99 100 100 100 100 100 100 99 99 99 99 97 97 94 98 96 96 98 98 98 98 97 97 80 70 93 99 93 75
98 78 97 91 83 76 78 88 88 82 91 92 97 93 86 100 100 100 100 100 100 100 100 100 98 97 98 98 96 97 97 97 95 98 98 98 96 99 99 99 98 89 85 100
100 93 95 97 95 89 98 98 81 84 91 89 88 89 100 100 99 100 100 100 100 100 100 100 98 98 98 96 96 97 97 95 96 96 97 98 96 94 99 98 97 99 97 100
98 96 100 98 100 100 99 94 90 89 90 93 91 93 92 96 100 100 99 100 100 100 99 99 99 100 99 97 97 97 97 97 96 96 96 96 98 98 79 92 100 99 98 99
100 99 100 100 100 99 100 94 91 93 90 93 95 94 94 96 99 100 100 100 100 100 100 100 100 99 98 98 97 97 96 97 96 97 96 96 96 97 98 98 95 86 96 98
95 100 100 100 100 100 100 97 93 90 88 89 93 93 94 86 94 100 100 100 100 99 100 100 98 98 98 97 97 97 97 96 96 97 96 94 95 96 96 97 98 99 99 100
100 100 100 100 100 100 97 93 91 89 88 87 92 93 95 92 80 89 97 100 100 100 100 100 100 99 99 98 98 98 99 97 97 97 95 95 96 96 96 96 96 96 98 98
100 100 100 100 100 100 95 90 90 90 90 90 93 96 93 94 84 76 74 77 91 98 100 100 100 100 100 100 100 98 98 97 97 95 96 96 96 96 95 96 96 96 96 96
99 100 100 100 100 96 91 90 91 90 92 91 93 96 96 94 86 77 73 70 71 71 81 90 95 99 99 99 100 99 99 98 98 97 97 96 96 96 96 96 96 96 96 97
100 100 100 100 99 96 91 91 92 93 92 95 96 96 95 94 90 78 71 65 63 63 64 65 64 66 85 97 98 98 99 99 99 98 97 96 97 96 96 96 96 96 95 96
100 100 100 100 97 95 94 94 94 94 95 95 95 98 97 94 88 76 67 61 58 56 56 55 54 55 54 57 69 86 95 96 97 98 98 98 98 97 96 95 96 96 96 96
100 100 98 97 96 96 95 94 94 96 94 94 96 96 97 93 84 74 65 61 57 54 50 49 50 50 49 49 47 48 53 66 77 79 90 96 98 97 97 96 97 96 96 96
100 98 98 97 96 94 94 94 94 95 96 94 95 94 92 91 84 76 66 61 58 55 53 51 48 46 45 44 43 43 41 41 42 43 43 51 78 94 95 96 97 96 96 96
98 98 98 97 96 94 93 92 93 94 94 94 94 93 93 92 86 80 72 64 58 55 52 50 49 48 46 45 45 44 42 40 40 40 40 40 40 41 64 93 96 96 96 96
99 98 99 99 97 97 96 93 92 95 97 96 94 93 91 90 88 85 81 78 71 63 56 52 49 48 46 44 45 44 44 44 44 41 39 39 39 37 37 35 36 40 46 49
100 100 99 98 98 98 97 96 94 94 94 95 94 94 92 90 87 86 83 80 78 75 72 64 55 49 48 46 46 45 44 44 45 44 44 42 40 38 38 37 35 32 30 27
99 99 98 97 98 97 97 96 95 94 93 92 91 91 91 90 88 86 84 82 78 77 75 73 69 61 52 48 47 47 47 46 45 44 42 43 44 43 40 37 35 33 32 30
94 94 93 92 93 92 90 91 91 92 91 89 87 86 85 85 83 82 82 83 81 78 76 78 74 70 67 62 51 48 50 48 46 45 45 43 39 39 42 41 39 36 33 30
90 88 87 85 83 82 80 79 78 77 76 75 74 72 70 70 70 70 71 68 71 73 72 74 78 75 69 70 70 63 52 50 49 46 44 45 45 42 38 38 41 41 39 37
95 94 93 93 93 93 92 89 89 87 86 83 80 77 72 67 65 59 59 63 57 57 58 60 65 68 68 71 70 69 67 62 54 50 48 46 45 45 44 42 41 45 48 47
96 96 95 94 94 92 92 96 93 90 86 86 85 83 79 77 81 79 70 68 67 63 57 52 50 51 54 59 63 64 64 64 62 59 55 52 51 50 49 47 46 48 53 56
96 96 97 96 94 93 92 92 92 92 90 89 89 89 86 86 82 82 80 75 70 66 62 62 61 54 46 45 48 53 56 58 58 58 56 54 54 56 58 58 58 63 68 72
100 100 100 100 100 99 99 100 98 100 97 93 97 96 91 92 90 85 78 72 69 69 67 65 62 57 53 52 46 43 45 49 51 52 51 50 50 56 65 69 72 81 86 90
98 100 96 93 99 97 97 99 94 92 97 98 94 98 96 96 94 91 86 77 73 72 70 68 64 60 55 51 50 49 43 42 44 45 46 46 46 50 66 75 82 89 93 96
Wind_Speed
23 22 21 12 14 16 16 16 12 16 21 26 23 27 27 24 21 22 21 19 18 18 15 13 11 10 10 10 19 23 34 40 43 45 48 57 55 51 51 58 55 51 48 42
18 17 15 16 15 14 14 17 17 15 15 19 22 23 23 17 20 21 20 18 17 17 16 14 12 9 8 6 8 12 21 32 44 45 45 44 57 63 56 56 51 50 49 48
20 15 18 12 18 21 18 15 13 13 15 19 17 19 17 18 22 22 20 19 18 17 19 17 15 14 11 7 4 2 7 23 36 43 45 46 49 50 51 46 49 54 50 50
14 14 8 8 12 15 15 13 11 12 14 16 17 17 16 18 24 20 19 18 18 18 19 19 17 15 13 10 8 5 3 12 24 36 45 52 45 41 53 59 54 44 43 50
15 14 8 9 12 12 9 12 10 10 12 13 13 13 15 18 19 19 19 19 19 19 19 19 18 17 14 11 9 6 1 4 12 25 36 47 55 47 38 36 42 45 49 47
11 6 3 7 8 6 6 9 10 8 11 12 13 10 12 15 17 17 17 18 18 17 18 17 17 17 15 11 10 7 4 3 2 8 22 36 44 54 55 50 43 40 54 49
20 11 5 7 8 7 5 5 8 10 11 11 13 15 16 17 17 17 18 17 16 17 17 16 16 16 15 13 10 12 9 7 4 2 5 17 34 42 45 52 55 49 40 41
5 4 3 5 8 7 6 8 8 10 11 11 13 14 15 17 17 16 15 14 15 15 15 16 15 15 15 14 15 13 10 7 6 4 4 5 9 25 39 43 42 46 54 58
4 3 4 6 9 7 6 8 9 10 12 13 13 14 14 15 16 15 15 14 15 15 14 15 15 14 14 15 14 13 11 8 7 6 5 5 3 6 13 26 34 45 46 48
4 3 4 5 4 5 7 9 10 12 13 14 13 13 14 14 14 15 15 14 13 13 13 13 14 14 13 13 14 13 12 10 9 6 5 4 4 4 6 11 17 27 35 42
5 6 7 5 5 7 9 10 12 13 13 13 13 12 13 13 13 14 14 14 15 15 15 16 15 15 14 13 13 13 14 12 11 9 5 4 3 5 6 7 10 13 18 24
5 7 9 5 7 9 10 11 13 13 13 14 13 12 11 13 13 13 13 13 13 13 14 15 16 17 17 16 14 14 13 12 12 11 8 6 5 4 4 4 7 9 11 13
5 5 5 6 7 8 10 11 11 12 12 12 12 12 11 11 12 13 13 13 13 13 13 13 13 13 15 16 17 16 14 14 14 11 9 7 4 4 4 3 3 6 7 9
5 5 5 6 7 8 9 10 11 11 11 12 12 11 11 9 10 12 12 12 12 13 13 12 12 12 12 12 13 15 16 16 14 13 12 10 7 5 3 4 4 3 5 7
6 6 7 7 7 7 8 10 11 11 11 11 11 11 11 10 9 10 11 12 12 12 12 12 12 12 12 12 11 10 10 12 13 13 13 12 11 9 8 5 3 5 6 6
7 7 8 8 8 9 9 11 12 12 12 11 11 12 12 11 10 10 10 11 11 11 12 12 12 12 12 11 11 11 11 10 9 9 9 9 12 11 10 9 9 8 5 5
8 9 9 10 10 11 11 12 13 14 14 14 13 13 13 14 13 12 11 11 11 11 11 12 12 12 11 11 10 10 10 9 9 8 8 7 6 6 7 9 10 11 9 8
9 10 10 10 11 11 12 13 14 14 14 15 15 14 14 14 14 14 14 13 13 13 12 12 11 12 12 11 11 11 11 10 9 8 8 8 7 6 4 3 2 2 2 3
10 11 11 11 11 11 12 12 13 14 14 14 14 15 15 15 15 15 15 15 15 14 14 14 13 11 12 12 11 11 11 10 10 9 9 9 8 7 7 6 5 4 4 3
11 12 12 12 13 12 12 13 12 13 14 14 14 14 14 14 15 15 15 15 15 15 15 16 15 14 12 14 12 11 11 11 10 10 9 9 9 9 9 8 8 8 7 7
12 12 13 13 14 14 14 14 13 14 14 15 15 15 15 14 14 14 15 15 16 16 15 15 17 16 13 12 13 12 11 11 11 10 10 9 9 9 9 9 10 10 10 11
13 14 14 14 15 15 16 15 15 16 16 16 17 17 17 17 17 16 17 17 15 17 17 15 16 17 17 13 13 12 12 12 12 11 11 10 10 9 9 9 10 11 11 12
14 14 14 15 15 14 15 16 16 16 16 16 17 17 17 17 17 17 16 18 18 17 18 17 16 17 18 15 16 14 13 12 12 12 12 12 11 11 10 10 10 10 10 11
15 15 16 16 16 16 16 16 17 17 17 17 18 18 18 17 16 17 17 16 17 17 17 18 18 18 19 16 16 16 15 13 13 13 12 12 12 11 11 11 10 10 11 11
16 16 17 17 17 17 17 17 17 18 18 17 17 17 17 17 16 16 16 17 18 18 18 18 18 19 18 17 17 17 17 16 14 14 13 12 12 12 11 11 10 10 10 10
16 16 15 16 16 16 16 17 17 16 17 16 15 17 18 18 18 19 19 19 18 19 19 19 19 19 18 17 17 18 18 17 16 15 14 13 12 12 11 10 10 10 9 9
17 17 19 18 18 18 18 18 18 17 17 17 17 17 17 18 19 20 21 21 21 20 18 18 19 20 20 19 18 18 18 18 17 16 15 14 13 12 12 11 10 10 9 8
Wind_Direction
267 273 277 245 249 252 252 254 260 272 291 298 315 319 317 312 316 324 325 326 328 324 331 331 323 303 284 271 247 210 212 213 219 214 222 213 219 216 226 224 225 227 230 230
266 269 260 257 278 269 265 258 273 283 300 300 310 312 318 322 328 334 332 333 340 339 340 345 348 341 325 301 259 221 211 209 214 211 209 220 219 217 218 227 224 223 225 220
262 270 276 225 241 261 266 275 273 280 296 311 318 319 325 330 338 336 337 341 347 352 353 355 357 1 351 338 320 339 232 209 207 209 213 217 215 219 213 215 219 225 221 222
274 272 248 217 226 242 256 268 277 287 304 318 325 323 323 328 333 333 343 345 351 355 360 354 359 4 357 351 338 15 249 233 209 203 210 210 205 207 221 226 223 219 216 221
247 241 230 236 235 233 246 264 270 280 309 320 327 324 325 331 326 338 346 348 351 356 355 353 358 1 0 357 353 18 59 216 231 209 202 209 221 205 212 207 204 221 221 223
240 231 234 221 239 208 226 249 278 284 311 322 327 330 331 331 337 343 346 347 348 353 356 357 2 1 3 3 3 28 72 110 165 215 207 200 209 215 216 225 212 214 218 218
253 261 196 219 199 196 192 222 265 297 315 325 330 333 338 339 340 341 344 349 349 349 355 0 4 2 5 13 20 32 45 63 72 134 182 202 201 207 218 221 223 225 219 214
252 254 212 216 199 201 225 263 287 299 313 322 327 328 334 335 338 340 344 347 348 351 355 0 5 8 9 14 26 27 30 42 65 84 109 139 197 207 203 209 220 228 229 231
244 243 228 207 218 234 251 269 287 302 309 317 324 324 331 336 337 341 346 350 352 352 359 0 7 13 17 22 25 31 25 45 51 76 96 100 119 190 210 210 210 210 214 218
178 208 200 199 214 252 266 283 299 302 304 307 314 318 324 333 335 338 344 349 356 356 2 8 11 17 24 27 24 27 30 46 52 54 82 112 120 141 180 206 210 209 213 219
227 208 216 229 257 278 291 298 300 301 302 306 312 316 319 326 331 334 340 346 351 356 4 9 13 16 25 33 36 32 33 41 50 53 61 73 117 144 157 180 195 205 212 217
226 225 236 267 282 289 292 294 295 297 300 303 309 314 316 320 327 332 336 342 347 352 357 358 3 11 19 26 33 40 44 45 53 53 53 59 71 101 136 158 174 184 196 207
235 236 246 269 283 291 293 296 300 303 304 306 310 313 315 317 323 328 335 338 344 347 352 356 0 5 9 14 19 29 40 48 53 56 57 63 72 92 98 113 185 205 198 188
260 268 271 279 286 288 292 298 302 305 307 309 311 314 316 316 319 323 326 330 336 340 344 350 357 2 6 13 14 14 17 26 33 48 56 62 74 79 97 121 132 169 208 210
274 282 285 286 286 290 293 296 298 301 304 305 309 312 314 316 318 319 323 327 331 335 337 342 351 353 358 2 8 12 12 12 12 18 24 40 51 65 78 89 126 156 151 171
285 286 288 289 290 289 290 293 297 299 301 304 307 308 310 313 315 316 316 318 319 323 329 333 338 343 347 351 355 357 0 2 2 360 8 15 15 27 43 53 58 61 76 107
294 296 295 298 296 296 295 295 296 298 300 301 302 301 302 305 308 310 312 311 313 318 322 325 327 331 333 337 343 345 345 341 344 343 343 349 1 11 11 14 18 24 32 37
306 305 304 301 298 296 296 297 297 298 298 299 299 300 298 298 300 302 304 307 310 312 313 314 315 317 322 324 326 332 334 335 331 324 322 322 326 331 334 338 345 2 11 10
310 307 306 305 304 303 301 299 299 299 299 299 299 299 299 298 298 298 298 299 301 302 305 308 310 312 310 312 317 320 322 325 324 319 311 305 301 300 301 303 302 301 300 296
311 310 309 308 307 305 304 303 302 300 300 301 301 299 298 298 298 297 297 297 295 295 297 298 300 303 304 303 306 307 309 311 313 313 311 303 294 288 285 284 285 286 288 288
314 311 309 307 306 305 304 302 300 298 298 298 298 298 297 297 297 297 297 297 296 296 295 296 294 294 293 292 293 293 292 295 298 301 304 306 303 293 283 278 276 277 279 282
314 312 311 309 307 305 304 303 301 299 297 295 294 294 294 294 293 293 294 292 290 291 291 291 290 292 293 293 287 285 282 281 282 285 289 293 296 297 294 285 277 273 271 271
317 314 312 310 308 307 305 305 304 302 301 300 298 296 295 295 294 291 287 288 289 287 286 285 284 284 284 288 286 284 281 279 278 277 279 281 285 288 291 292 290 284 279 275
318 315 313 311 309 307 305 302 302 300 300 299 297 297 297 296 295 294 294 292 290 288 286 285 282 279 278 280 278 278 279 276 274 273 274 275 276 278 281 286 287 287 285 282
319 317 314 311 309 307 306 304 302 300 299 298 297 295 294 295 294 291 290 290 288 287 285 284 283 281 279 275 273 272 272 272 271 270 270 269 270 271 274 277 281 282 281 281
327 325 322 320 317 314 311 308 306 305 300 299 298 294 295 296 295 295 295 294 291 285 281 279 278 278 278 277 272 267 265 264 265 265 265 266 266 265 265 268 272 275 279 280
323 320 318 318 317 315 315 312 310 309 307 304 301 296 295 294 292 292 293 294 292 287 282 278 277 276 276 275 273 270 264 260 258 257 258 259 260 261 261 263 266 269 271 271